Year,Month,Day,Hour,Minute,Value (Times are PST for temperature in C)
2014,12,10,00,00,9.80
2014,12,10,00,01,9.80
2014,12,10,00,02,9.80
2014,12,10,00,03,9.80
2014,12,10,00,04,9.80
2014,12,10,00,05,9.80
2014,12,10,00,06,9.80
2014,12,10,00,07,9.80
2014,12,10,00,08,9.80
2014,12,10,00,09,9.80
2014,12,10,00,10,9.80
2014,12,10,00,11,9.80
2014,12,10,00,12,9.70
2014,12,10,00,13,9.70
2014,12,10,00,14,9.70
2014,12,10,00,15,9.70
2014,12,10,00,16,9.70
2014,12,10,00,17,9.70
2014,12,10,00,18,9.70
2014,12,10,00,19,9.70
2014,12,10,00,20,9.70
2014,12,10,00,21,9.70
2014,12,10,00,22,9.70
2014,12,10,00,23,9.70
2014,12,10,00,24,9.70
2014,12,10,00,25,9.70
2014,12,10,00,26,9.70
2014,12,10,00,27,9.70
2014,12,10,00,28,9.70
2014,12,10,00,29,9.70
2014,12,10,00,30,9.70
2014,12,10,00,31,9.70
2014,12,10,00,32,9.70
2014,12,10,00,33,9.70
2014,12,10,00,34,9.70
2014,12,10,00,35,9.70
2014,12,10,00,36,9.70
2014,12,10,00,37,9.70
2014,12,10,00,38,9.70
2014,12,10,00,39,9.60
2014,12,10,00,40,9.60
2014,12,10,00,41,9.60
2014,12,10,00,42,9.60
2014,12,10,00,43,9.60
2014,12,10,00,44,9.60
2014,12,10,00,45,9.60
2014,12,10,00,46,9.60
2014,12,10,00,47,9.60
2014,12,10,00,48,9.60
2014,12,10,00,49,9.60
2014,12,10,00,50,9.60
2014,12,10,00,51,9.60
2014,12,10,00,52,9.60
2014,12,10,00,53,9.60
2014,12,10,00,54,9.60
2014,12,10,00,55,9.60
2014,12,10,00,56,9.50
2014,12,10,00,57,9.50
2014,12,10,00,58,9.50
2014,12,10,00,59,9.50
2014,12,10,01,00,9.50
2014,12,10,01,01,9.50
2014,12,10,01,02,9.50
2014,12,10,01,03,9.50
2014,12,10,01,04,9.50
2014,12,10,01,05,9.50
2014,12,10,01,06,9.50
2014,12,10,01,07,9.50
2014,12,10,01,08,9.50
2014,12,10,01,09,9.50
2014,12,10,01,10,9.50
2014,12,10,01,11,9.50
2014,12,10,01,12,9.50
2014,12,10,01,13,9.50
2014,12,10,01,14,9.50
2014,12,10,01,15,9.50
2014,12,10,01,16,9.50
2014,12,10,01,17,9.50
2014,12,10,01,18,9.50
2014,12,10,01,19,9.50
2014,12,10,01,20,9.50
2014,12,10,01,21,9.50
2014,12,10,01,22,9.50
2014,12,10,01,23,9.50
2014,12,10,01,24,9.60
2014,12,10,01,25,9.60
2014,12,10,01,26,9.60
2014,12,10,01,27,9.60
2014,12,10,01,28,9.60
2014,12,10,01,29,9.60
2014,12,10,01,30,9.60
2014,12,10,01,31,9.60
2014,12,10,01,32,9.60
2014,12,10,01,33,9.60
2014,12,10,01,34,9.60
2014,12,10,01,35,9.60
2014,12,10,01,36,9.60
2014,12,10,01,37,9.60
2014,12,10,01,38,9.60
2014,12,10,01,39,9.60
2014,12,10,01,40,9.60
2014,12,10,01,41,9.60
2014,12,10,01,42,9.60
2014,12,10,01,43,9.60
2014,12,10,01,44,9.60
2014,12,10,01,45,9.60
2014,12,10,01,46,9.60
2014,12,10,01,47,9.60
2014,12,10,01,48,9.60
2014,12,10,01,49,9.60
2014,12,10,01,50,9.60
2014,12,10,01,51,9.60
2014,12,10,01,52,9.60
2014,12,10,01,53,9.60
2014,12,10,01,54,9.60
2014,12,10,01,55,9.60
2014,12,10,01,56,9.60
2014,12,10,01,57,9.60
2014,12,10,01,58,9.60
2014,12,10,01,59,9.50
2014,12,10,02,00,9.50
2014,12,10,02,01,9.50
2014,12,10,02,02,9.50
2014,12,10,02,03,9.50
2014,12,10,02,04,9.50
2014,12,10,02,05,9.50
2014,12,10,02,06,9.50
2014,12,10,02,07,9.50
2014,12,10,02,08,9.50
2014,12,10,02,09,9.50
2014,12,10,02,10,9.50
2014,12,10,02,11,9.50
2014,12,10,02,12,9.50
2014,12,10,02,13,9.50
2014,12,10,02,14,9.50
2014,12,10,02,15,9.40
2014,12,10,02,16,9.40
2014,12,10,02,17,9.40
2014,12,10,02,18,9.40
2014,12,10,02,19,9.40
2014,12,10,02,20,9.40
2014,12,10,02,21,9.40
2014,12,10,02,22,9.40
2014,12,10,02,23,9.40
2014,12,10,02,24,9.40
2014,12,10,02,25,9.40
2014,12,10,02,26,9.40
2014,12,10,02,27,9.40
2014,12,10,02,28,9.40
2014,12,10,02,29,9.40
2014,12,10,02,30,9.40
2014,12,10,02,31,9.40
2014,12,10,02,32,9.40
2014,12,10,02,33,9.40
2014,12,10,02,34,9.40
2014,12,10,02,35,9.40
2014,12,10,02,36,9.40
2014,12,10,02,37,9.40
2014,12,10,02,38,9.40
2014,12,10,02,39,9.40
2014,12,10,02,40,9.40
2014,12,10,02,41,9.40
2014,12,10,02,42,9.50
2014,12,10,02,43,9.50
2014,12,10,02,44,9.50
2014,12,10,02,45,9.50
2014,12,10,02,46,9.50
2014,12,10,02,47,9.50
2014,12,10,02,48,9.50
2014,12,10,02,49,9.50
2014,12,10,02,50,9.50
2014,12,10,02,51,9.60
2014,12,10,02,52,9.60
2014,12,10,02,53,9.60
2014,12,10,02,54,9.60
2014,12,10,02,55,9.60
2014,12,10,02,56,9.60
2014,12,10,02,57,9.60
2014,12,10,02,58,9.60
2014,12,10,02,59,9.60
2014,12,10,03,00,9.60
2014,12,10,03,01,9.60
2014,12,10,03,02,9.60
2014,12,10,03,03,9.60
2014,12,10,03,04,9.60
2014,12,10,03,05,9.70
2014,12,10,03,06,9.70
2014,12,10,03,07,9.70
2014,12,10,03,08,9.70
2014,12,10,03,09,9.70
2014,12,10,03,10,9.70
2014,12,10,03,11,9.70
2014,12,10,03,12,9.70
2014,12,10,03,13,9.70
2014,12,10,03,14,9.70
2014,12,10,03,15,9.70
2014,12,10,03,16,9.60
2014,12,10,03,17,9.60
2014,12,10,03,18,9.60
2014,12,10,03,19,9.60
2014,12,10,03,20,9.60
2014,12,10,03,21,9.60
2014,12,10,03,22,9.60
2014,12,10,03,23,9.60
2014,12,10,03,24,9.60
2014,12,10,03,25,9.60
2014,12,10,03,26,9.60
2014,12,10,03,27,9.60
2014,12,10,03,28,9.60
2014,12,10,03,29,9.60
2014,12,10,03,30,9.60
2014,12,10,03,31,9.60
2014,12,10,03,32,9.60
2014,12,10,03,33,9.60
2014,12,10,03,34,9.60
2014,12,10,03,35,9.60
2014,12,10,03,36,9.60
2014,12,10,03,37,9.60
2014,12,10,03,38,9.60
2014,12,10,03,39,9.60
2014,12,10,03,40,9.60
2014,12,10,03,41,9.60
2014,12,10,03,42,9.60
2014,12,10,03,43,9.60
2014,12,10,03,44,9.60
2014,12,10,03,45,9.60
2014,12,10,03,46,9.60
2014,12,10,03,47,9.60
2014,12,10,03,48,9.60
2014,12,10,03,49,9.60
2014,12,10,03,50,9.60
2014,12,10,03,51,9.60
2014,12,10,03,52,9.60
2014,12,10,03,53,9.60
2014,12,10,03,54,9.60
2014,12,10,03,55,9.60
2014,12,10,03,56,9.60
2014,12,10,03,57,9.60
2014,12,10,03,58,9.60
2014,12,10,03,59,9.60
2014,12,10,04,00,9.60
2014,12,10,04,01,9.60
2014,12,10,04,02,9.60
2014,12,10,04,03,9.60
2014,12,10,04,04,9.60
2014,12,10,04,05,9.60
2014,12,10,04,06,9.60
2014,12,10,04,07,9.60
2014,12,10,04,08,9.60
2014,12,10,04,09,9.60
2014,12,10,04,10,9.60
2014,12,10,04,11,9.60
2014,12,10,04,12,9.60
2014,12,10,04,13,9.60
2014,12,10,04,14,9.60
2014,12,10,04,15,9.60
2014,12,10,04,16,9.60
2014,12,10,04,17,9.60
2014,12,10,04,18,9.60
2014,12,10,04,19,9.60
2014,12,10,04,20,9.60
2014,12,10,04,21,9.60
2014,12,10,04,22,9.60
2014,12,10,04,23,9.60
2014,12,10,04,24,9.60
2014,12,10,04,25,9.60
2014,12,10,04,26,9.60
2014,12,10,04,27,9.60
2014,12,10,04,28,9.60
2014,12,10,04,29,9.60
2014,12,10,04,30,9.70
2014,12,10,04,31,9.80
2014,12,10,04,32,9.80
2014,12,10,04,33,9.90
2014,12,10,04,34,10.00
2014,12,10,04,35,10.10
2014,12,10,04,36,10.10
2014,12,10,04,37,10.20
2014,12,10,04,38,10.20
2014,12,10,04,39,10.20
2014,12,10,04,40,10.30
2014,12,10,04,41,10.30
2014,12,10,04,42,10.40
2014,12,10,04,43,10.40
2014,12,10,04,44,10.50
2014,12,10,04,45,10.60
2014,12,10,04,46,10.60
2014,12,10,04,47,10.60
2014,12,10,04,48,10.60
2014,12,10,04,49,10.70
2014,12,10,04,50,10.70
2014,12,10,04,51,10.70
2014,12,10,04,52,10.70
2014,12,10,04,53,10.80
2014,12,10,04,54,10.80
2014,12,10,04,55,10.80
2014,12,10,04,56,10.80
2014,12,10,04,57,10.90
2014,12,10,04,58,10.90
2014,12,10,04,59,11.00
2014,12,10,05,00,11.00
2014,12,10,05,01,11.10
2014,12,10,05,02,11.20
2014,12,10,05,03,11.30
2014,12,10,05,04,11.30
2014,12,10,05,05,11.40
2014,12,10,05,06,11.40
2014,12,10,05,07,11.50
2014,12,10,05,08,11.50
2014,12,10,05,09,11.60
2014,12,10,05,10,11.70
2014,12,10,05,11,11.70
2014,12,10,05,12,11.80
2014,12,10,05,13,11.80
2014,12,10,05,14,11.90
2014,12,10,05,15,11.90
2014,12,10,05,16,12.00
2014,12,10,05,17,12.00
2014,12,10,05,18,12.10
2014,12,10,05,19,12.10
2014,12,10,05,20,12.10
2014,12,10,05,21,12.10
2014,12,10,05,22,12.10
2014,12,10,05,23,12.10
2014,12,10,05,24,12.20
2014,12,10,05,25,12.20
2014,12,10,05,26,12.20
2014,12,10,05,27,12.20
2014,12,10,05,28,12.20
2014,12,10,05,29,12.20
2014,12,10,05,30,12.20
2014,12,10,05,31,12.20
2014,12,10,05,32,12.20
2014,12,10,05,33,12.20
2014,12,10,05,34,12.20
2014,12,10,05,35,12.20
2014,12,10,05,36,12.20
2014,12,10,05,37,12.20
2014,12,10,05,38,12.20
2014,12,10,05,39,12.30
2014,12,10,05,40,12.30
2014,12,10,05,41,12.30
2014,12,10,05,42,12.30
2014,12,10,05,43,12.30
2014,12,10,05,44,12.40
2014,12,10,05,45,12.40
2014,12,10,05,46,12.50
2014,12,10,05,47,12.50
2014,12,10,05,48,12.60
2014,12,10,05,49,12.60
2014,12,10,05,50,12.60
2014,12,10,05,51,12.70
2014,12,10,05,52,12.70
2014,12,10,05,53,12.70
2014,12,10,05,54,12.70
2014,12,10,05,55,12.70
2014,12,10,05,56,12.70
2014,12,10,05,57,12.60
2014,12,10,05,58,12.60
2014,12,10,05,59,12.60
2014,12,10,06,00,12.50
2014,12,10,06,01,12.50
2014,12,10,06,02,12.50
2014,12,10,06,03,12.40
2014,12,10,06,04,12.40
2014,12,10,06,05,12.40
2014,12,10,06,06,12.30
2014,12,10,06,07,12.30
2014,12,10,06,08,12.30
2014,12,10,06,09,12.30
2014,12,10,06,10,12.30
2014,12,10,06,11,12.20
2014,12,10,06,12,12.20
2014,12,10,06,13,12.20
2014,12,10,06,14,12.10
2014,12,10,06,15,12.10
2014,12,10,06,16,12.10
2014,12,10,06,17,12.10
2014,12,10,06,18,12.10
2014,12,10,06,19,12.10
2014,12,10,06,20,12.10
2014,12,10,06,21,12.10
2014,12,10,06,22,12.10
2014,12,10,06,23,12.10
2014,12,10,06,24,12.10
2014,12,10,06,25,12.10
2014,12,10,06,26,12.10
2014,12,10,06,27,12.10
2014,12,10,06,28,12.10
2014,12,10,06,29,12.10
2014,12,10,06,30,12.10
2014,12,10,06,31,12.20
2014,12,10,06,32,12.20
2014,12,10,06,33,12.20
2014,12,10,06,34,12.20
2014,12,10,06,35,12.20
2014,12,10,06,36,12.20
2014,12,10,06,37,12.20
2014,12,10,06,38,12.20
2014,12,10,06,39,12.20
2014,12,10,06,40,12.20
2014,12,10,06,41,12.20
2014,12,10,06,42,12.20
2014,12,10,06,43,12.20
2014,12,10,06,44,12.20
2014,12,10,06,45,12.30
2014,12,10,06,46,12.30
2014,12,10,06,47,12.30
2014,12,10,06,48,12.30
2014,12,10,06,49,12.30
2014,12,10,06,50,12.30
2014,12,10,06,51,12.30
2014,12,10,06,52,12.30
2014,12,10,06,53,12.30
2014,12,10,06,54,12.30
2014,12,10,06,55,12.30
2014,12,10,06,56,12.30
2014,12,10,06,57,12.40
2014,12,10,06,58,12.40
2014,12,10,06,59,12.40
2014,12,10,07,00,12.40
2014,12,10,07,01,12.40
2014,12,10,07,02,12.40
2014,12,10,07,03,12.40
2014,12,10,07,04,12.50
2014,12,10,07,05,12.50
2014,12,10,07,06,12.50
2014,12,10,07,07,12.50
2014,12,10,07,08,12.60
2014,12,10,07,09,12.60
2014,12,10,07,10,12.60
2014,12,10,07,11,12.70
2014,12,10,07,12,12.70
2014,12,10,07,13,12.80
2014,12,10,07,14,12.80
2014,12,10,07,15,13.00
2014,12,10,07,16,13.10
2014,12,10,07,17,13.20
2014,12,10,07,18,13.30
2014,12,10,07,19,13.30
2014,12,10,07,20,13.40
2014,12,10,07,21,13.50
2014,12,10,07,22,13.60
2014,12,10,07,23,13.60
2014,12,10,07,24,13.70
2014,12,10,07,25,13.70
2014,12,10,07,26,13.80
2014,12,10,07,27,13.90
2014,12,10,07,28,13.90
2014,12,10,07,29,14.00
2014,12,10,07,30,14.00
2014,12,10,07,31,14.00
2014,12,10,07,32,14.10
2014,12,10,07,33,14.20
2014,12,10,07,34,14.20
2014,12,10,07,35,14.20
2014,12,10,07,36,14.20
2014,12,10,07,37,14.30
2014,12,10,07,38,14.30
2014,12,10,07,39,14.40
2014,12,10,07,40,14.40
2014,12,10,07,41,14.40
2014,12,10,07,42,14.50
2014,12,10,07,43,14.50
2014,12,10,07,44,14.60
2014,12,10,07,45,14.70
2014,12,10,07,46,14.70
2014,12,10,07,47,14.70
2014,12,10,07,48,14.70
2014,12,10,07,49,14.70
2014,12,10,07,50,14.70
2014,12,10,07,51,14.70
2014,12,10,07,52,14.70
2014,12,10,07,53,14.80
2014,12,10,07,54,14.80
2014,12,10,07,55,14.80
2014,12,10,07,56,14.80
2014,12,10,07,57,14.80
2014,12,10,07,58,14.80
2014,12,10,07,59,14.80
2014,12,10,08,00,14.70
2014,12,10,08,01,14.70
2014,12,10,08,02,14.70
2014,12,10,08,03,14.70
2014,12,10,08,04,14.70
2014,12,10,08,05,14.70
2014,12,10,08,06,14.70
2014,12,10,08,07,14.60
2014,12,10,08,08,14.60
2014,12,10,08,09,14.60
2014,12,10,08,10,14.60
2014,12,10,08,11,14.60
2014,12,10,08,12,14.50
2014,12,10,08,13,14.50
2014,12,10,08,14,14.40
2014,12,10,08,15,14.40
2014,12,10,08,16,14.40
2014,12,10,08,17,14.30
2014,12,10,08,18,14.30
2014,12,10,08,19,14.20
2014,12,10,08,20,14.20
2014,12,10,08,21,14.20
2014,12,10,08,22,14.10
2014,12,10,08,23,14.10
2014,12,10,08,24,14.10
2014,12,10,08,25,14.10
2014,12,10,08,26,14.10
2014,12,10,08,27,14.10
2014,12,10,08,28,14.10
2014,12,10,08,29,14.10
2014,12,10,08,30,14.00
2014,12,10,08,31,14.00
2014,12,10,08,32,14.00
2014,12,10,08,33,14.00
2014,12,10,08,34,13.90
2014,12,10,08,35,13.90
2014,12,10,08,36,13.90
2014,12,10,08,37,13.90
2014,12,10,08,38,13.90
2014,12,10,08,39,13.90
2014,12,10,08,40,13.90
2014,12,10,08,41,13.90
2014,12,10,08,42,13.80
2014,12,10,08,43,13.80
2014,12,10,08,44,13.80
2014,12,10,08,45,13.70
2014,12,10,08,46,13.70
2014,12,10,08,47,13.70
2014,12,10,08,48,13.80
2014,12,10,08,49,13.80
2014,12,10,08,50,13.80
2014,12,10,08,51,13.80
2014,12,10,08,52,13.80
2014,12,10,08,53,13.90
2014,12,10,08,54,13.90
2014,12,10,08,55,13.90
2014,12,10,08,56,13.80
2014,12,10,08,57,13.80
2014,12,10,08,58,13.80
2014,12,10,08,59,13.80
2014,12,10,09,00,13.80
2014,12,10,09,01,13.80
2014,12,10,09,02,13.80
2014,12,10,09,03,13.80
2014,12,10,09,04,13.70
2014,12,10,09,05,13.70
2014,12,10,09,06,13.70
2014,12,10,09,07,13.70
2014,12,10,09,08,13.60
2014,12,10,09,09,13.60
2014,12,10,09,10,13.60
2014,12,10,09,11,13.60
2014,12,10,09,12,13.50
2014,12,10,09,13,13.50
2014,12,10,09,14,13.40
2014,12,10,09,15,13.40
2014,12,10,09,16,13.40
2014,12,10,09,17,13.40
2014,12,10,09,18,13.30
2014,12,10,09,19,13.30
2014,12,10,09,20,13.30
2014,12,10,09,21,13.30
2014,12,10,09,22,13.30
2014,12,10,09,23,13.30
2014,12,10,09,24,13.30
2014,12,10,09,25,13.30
2014,12,10,09,26,13.30
2014,12,10,09,27,13.30
2014,12,10,09,28,13.30
2014,12,10,09,29,13.30
2014,12,10,09,30,13.30
2014,12,10,09,31,13.30
2014,12,10,09,32,13.30
2014,12,10,09,33,13.30
2014,12,10,09,34,13.30
2014,12,10,09,35,13.30
2014,12,10,09,36,13.30
2014,12,10,09,37,13.30
2014,12,10,09,38,13.30
2014,12,10,09,39,13.20
2014,12,10,09,40,13.20
2014,12,10,09,41,13.20
2014,12,10,09,42,13.20
2014,12,10,09,43,13.20
2014,12,10,09,44,13.20
2014,12,10,09,45,13.20
2014,12,10,09,46,13.20
2014,12,10,09,47,13.20
2014,12,10,09,48,13.20
2014,12,10,09,49,13.20
2014,12,10,09,50,13.20
2014,12,10,09,51,13.20
2014,12,10,09,52,13.20
2014,12,10,09,53,13.10
2014,12,10,09,54,13.10
2014,12,10,09,55,13.10
2014,12,10,09,56,13.10
2014,12,10,09,57,13.10
2014,12,10,09,58,13.20
2014,12,10,09,59,13.20
2014,12,10,10,00,13.20
2014,12,10,10,01,13.20
2014,12,10,10,02,13.20
2014,12,10,10,03,13.20
2014,12,10,10,04,13.20
2014,12,10,10,05,13.30
2014,12,10,10,06,13.30
2014,12,10,10,07,13.30
2014,12,10,10,08,13.30
2014,12,10,10,09,13.30
2014,12,10,10,10,13.30
2014,12,10,10,11,13.30
2014,12,10,10,12,13.30
2014,12,10,10,13,13.30
2014,12,10,10,14,13.30
2014,12,10,10,15,13.30
2014,12,10,10,16,13.40
2014,12,10,10,17,13.40
2014,12,10,10,18,13.40
2014,12,10,10,19,13.40
2014,12,10,10,20,13.40
2014,12,10,10,21,13.30
2014,12,10,10,22,13.30
2014,12,10,10,23,13.30
2014,12,10,10,24,13.30
2014,12,10,10,25,13.30
2014,12,10,10,26,13.30
2014,12,10,10,27,13.30
2014,12,10,10,28,13.30
2014,12,10,10,29,13.40
2014,12,10,10,30,13.40
2014,12,10,10,31,13.40
2014,12,10,10,32,13.40
2014,12,10,10,33,13.40
2014,12,10,10,34,13.40
2014,12,10,10,35,13.30
2014,12,10,10,36,13.30
2014,12,10,10,37,13.30
2014,12,10,10,38,13.30
2014,12,10,10,39,13.30
2014,12,10,10,40,13.30
2014,12,10,10,41,13.30
2014,12,10,10,42,13.30
2014,12,10,10,43,13.20
2014,12,10,10,44,13.20
2014,12,10,10,45,13.20
2014,12,10,10,46,13.20
2014,12,10,10,47,13.20
2014,12,10,10,48,13.20
2014,12,10,10,49,13.20
2014,12,10,10,50,13.20
2014,12,10,10,51,13.20
2014,12,10,10,52,13.20
2014,12,10,10,53,13.10
2014,12,10,10,54,13.10
2014,12,10,10,55,13.10
2014,12,10,10,56,13.10
2014,12,10,10,57,13.10
2014,12,10,10,58,13.00
2014,12,10,10,59,13.00
2014,12,10,11,00,13.00
2014,12,10,11,01,13.00
2014,12,10,11,02,13.00
2014,12,10,11,03,13.00
2014,12,10,11,04,13.00
2014,12,10,11,05,13.10
2014,12,10,11,06,13.00
2014,12,10,11,07,13.00
2014,12,10,11,08,12.90
2014,12,10,11,09,12.90
2014,12,10,11,10,12.80
2014,12,10,11,11,12.70
2014,12,10,11,12,12.60
2014,12,10,11,13,12.60
2014,12,10,11,14,12.60
2014,12,10,11,15,12.60
2014,12,10,11,16,12.60
2014,12,10,11,17,12.60
2014,12,10,11,18,12.50
2014,12,10,11,19,12.50
2014,12,10,11,20,12.50
2014,12,10,11,21,12.50
2014,12,10,11,22,12.50
2014,12,10,11,23,12.50
2014,12,10,11,24,12.60
2014,12,10,11,25,12.60
2014,12,10,11,26,12.60
2014,12,10,11,27,12.60
2014,12,10,11,28,12.60
2014,12,10,11,29,12.60
2014,12,10,11,30,12.60
2014,12,10,11,31,12.60
2014,12,10,11,32,12.50
2014,12,10,11,33,12.50
2014,12,10,11,34,12.50
2014,12,10,11,35,12.40
2014,12,10,11,36,12.40
2014,12,10,11,37,12.40
2014,12,10,11,38,12.40
2014,12,10,11,39,12.40
2014,12,10,11,40,12.30
2014,12,10,11,41,12.30
2014,12,10,11,42,12.30
2014,12,10,11,43,12.20
2014,12,10,11,44,12.20
2014,12,10,11,45,12.20
2014,12,10,11,46,12.10
2014,12,10,11,47,12.10
2014,12,10,11,48,12.10
2014,12,10,11,49,12.10
2014,12,10,11,50,12.00
2014,12,10,11,51,12.00
2014,12,10,11,52,12.00
2014,12,10,11,53,11.90
2014,12,10,11,54,11.90
2014,12,10,11,55,11.90
2014,12,10,11,56,11.80
2014,12,10,11,57,11.80
2014,12,10,11,58,11.80
2014,12,10,11,59,11.80
2014,12,10,12,00,11.70
2014,12,10,12,01,11.70
2014,12,10,12,02,11.70
2014,12,10,12,03,11.60
2014,12,10,12,04,11.60
2014,12,10,12,05,11.60
2014,12,10,12,06,11.50
2014,12,10,12,07,11.50
2014,12,10,12,08,11.50
2014,12,10,12,09,11.40
2014,12,10,12,10,11.40
2014,12,10,12,11,11.40
2014,12,10,12,12,11.40
2014,12,10,12,13,11.40
2014,12,10,12,14,11.40
2014,12,10,12,15,11.40
2014,12,10,12,16,11.40
2014,12,10,12,17,11.40
2014,12,10,12,18,11.40
2014,12,10,12,19,11.40
2014,12,10,12,20,11.40
2014,12,10,12,21,11.40
2014,12,10,12,22,11.40
2014,12,10,12,23,11.40
2014,12,10,12,24,11.40
2014,12,10,12,25,11.40
2014,12,10,12,26,11.40
2014,12,10,12,27,11.40
2014,12,10,12,28,11.40
2014,12,10,12,29,11.40
2014,12,10,12,30,11.40
2014,12,10,12,31,11.40
2014,12,10,12,32,11.40
2014,12,10,12,33,11.40
2014,12,10,12,34,11.40
2014,12,10,12,35,11.50
2014,12,10,12,36,11.50
2014,12,10,12,37,11.50
2014,12,10,12,38,11.50
2014,12,10,12,39,11.60
2014,12,10,12,40,11.60
2014,12,10,12,41,11.60
2014,12,10,12,42,11.60
2014,12,10,12,43,11.60
2014,12,10,12,44,11.60
2014,12,10,12,45,11.60
2014,12,10,12,46,11.60
2014,12,10,12,47,11.60
2014,12,10,12,48,11.60
2014,12,10,12,49,11.60
2014,12,10,12,50,11.60
2014,12,10,12,51,11.60
2014,12,10,12,52,11.60
2014,12,10,12,53,11.50
2014,12,10,12,54,11.50
2014,12,10,12,55,11.50
2014,12,10,12,56,11.50
2014,12,10,12,57,11.50
2014,12,10,12,58,11.40
2014,12,10,12,59,11.40
2014,12,10,13,00,11.40
2014,12,10,13,01,11.40
2014,12,10,13,02,11.40
2014,12,10,13,03,11.40
2014,12,10,13,04,11.40
2014,12,10,13,05,11.30
2014,12,10,13,06,11.30
2014,12,10,13,07,11.30
2014,12,10,13,08,11.30
2014,12,10,13,09,11.30
2014,12,10,13,10,11.30
2014,12,10,13,11,11.30
2014,12,10,13,12,11.30
2014,12,10,13,13,11.20
2014,12,10,13,14,11.20
2014,12,10,13,15,11.20
2014,12,10,13,16,11.20
2014,12,10,13,17,11.20
2014,12,10,13,18,11.20
2014,12,10,13,19,11.20
2014,12,10,13,20,11.10
2014,12,10,13,21,11.10
2014,12,10,13,22,11.10
2014,12,10,13,23,11.10
2014,12,10,13,24,11.10
2014,12,10,13,25,11.00
2014,12,10,13,26,11.00
2014,12,10,13,27,11.00
2014,12,10,13,28,10.90
2014,12,10,13,29,10.90
2014,12,10,13,30,10.90
2014,12,10,13,31,10.90
2014,12,10,13,32,10.90
2014,12,10,13,33,10.90
2014,12,10,13,34,10.90
2014,12,10,13,35,10.90
2014,12,10,13,36,10.80
2014,12,10,13,37,10.80
2014,12,10,13,38,10.80
2014,12,10,13,39,10.80
2014,12,10,13,40,10.80
2014,12,10,13,41,10.80
2014,12,10,13,42,10.80
2014,12,10,13,43,10.80
2014,12,10,13,44,10.80
2014,12,10,13,45,10.80
2014,12,10,13,46,10.80
2014,12,10,13,47,10.80
2014,12,10,13,48,10.80
2014,12,10,13,49,10.80
2014,12,10,13,50,10.80
2014,12,10,13,51,10.80
2014,12,10,13,52,10.80
2014,12,10,13,53,10.80
2014,12,10,13,54,10.80
2014,12,10,13,55,10.80
2014,12,10,13,56,10.80
2014,12,10,13,57,10.80
2014,12,10,13,58,10.80
2014,12,10,13,59,10.80
2014,12,10,14,00,10.80
2014,12,10,14,01,10.80
2014,12,10,14,02,10.80
2014,12,10,14,03,10.80
2014,12,10,14,04,10.80
2014,12,10,14,05,10.80
2014,12,10,14,06,10.80
2014,12,10,14,07,10.80
2014,12,10,14,08,10.80
2014,12,10,14,09,10.80
2014,12,10,14,10,10.80
2014,12,10,14,11,10.80
2014,12,10,14,12,10.80
2014,12,10,14,13,10.80
2014,12,10,14,14,10.80
2014,12,10,14,15,10.80
2014,12,10,14,16,10.80
2014,12,10,14,17,10.80
2014,12,10,14,18,10.80
2014,12,10,14,19,10.80
2014,12,10,14,20,10.80
2014,12,10,14,21,10.80
2014,12,10,14,22,10.80
2014,12,10,14,23,10.80
2014,12,10,14,24,10.80
2014,12,10,14,25,10.80
2014,12,10,14,26,10.80
2014,12,10,14,27,10.80
2014,12,10,14,28,10.80
2014,12,10,14,29,10.80
2014,12,10,14,30,10.80
2014,12,10,14,31,10.80
2014,12,10,14,32,10.80
2014,12,10,14,33,10.80
2014,12,10,14,34,10.80
2014,12,10,14,35,10.80
2014,12,10,14,36,10.80
2014,12,10,14,37,10.80
2014,12,10,14,38,10.80
2014,12,10,14,39,10.80
2014,12,10,14,40,10.80
2014,12,10,14,41,10.70
2014,12,10,14,42,10.70
2014,12,10,14,43,10.70
2014,12,10,14,44,10.70
2014,12,10,14,45,10.70
2014,12,10,14,46,10.70
2014,12,10,14,47,10.70
2014,12,10,14,48,10.70
2014,12,10,14,49,10.70
2014,12,10,14,50,10.70
2014,12,10,14,51,10.60
2014,12,10,14,52,10.60
2014,12,10,14,53,10.60
2014,12,10,14,54,10.60
2014,12,10,14,55,10.60
2014,12,10,14,56,10.60
2014,12,10,14,57,10.60
2014,12,10,14,58,10.60
2014,12,10,14,59,10.60
2014,12,10,15,00,10.60
2014,12,10,15,01,10.60
2014,12,10,15,02,10.60
2014,12,10,15,03,10.60
2014,12,10,15,04,10.60
2014,12,10,15,05,10.60
2014,12,10,15,06,10.60
2014,12,10,15,07,10.60
2014,12,10,15,08,10.60
2014,12,10,15,09,10.60
2014,12,10,15,10,10.60
2014,12,10,15,11,10.60
2014,12,10,15,12,10.60
2014,12,10,15,13,10.60
2014,12,10,15,14,10.60
2014,12,10,15,15,10.60
2014,12,10,15,16,10.60
2014,12,10,15,17,10.50
2014,12,10,15,18,10.50
2014,12,10,15,19,10.50
2014,12,10,15,20,10.50
2014,12,10,15,21,10.50
2014,12,10,15,22,10.50
2014,12,10,15,23,10.50
2014,12,10,15,24,10.50
2014,12,10,15,25,10.50
2014,12,10,15,26,10.50
2014,12,10,15,27,10.50
2014,12,10,15,28,10.40
2014,12,10,15,29,10.40
2014,12,10,15,30,10.40
2014,12,10,15,31,10.40
2014,12,10,15,32,10.40
2014,12,10,15,33,10.40
2014,12,10,15,34,10.40
2014,12,10,15,35,10.40
2014,12,10,15,36,10.40
2014,12,10,15,37,10.40
2014,12,10,15,38,10.40
2014,12,10,15,39,10.40
2014,12,10,15,40,10.40
2014,12,10,15,41,10.40
2014,12,10,15,42,10.30
2014,12,10,15,43,10.30
2014,12,10,15,44,10.30
2014,12,10,15,45,10.30
2014,12,10,15,46,10.30
2014,12,10,15,47,10.30
2014,12,10,15,48,10.30
2014,12,10,15,49,10.30
2014,12,10,15,50,10.30
2014,12,10,15,51,10.30
2014,12,10,15,52,10.30
2014,12,10,15,53,10.30
2014,12,10,15,54,10.30
2014,12,10,15,55,10.30
2014,12,10,15,56,10.30
2014,12,10,15,57,10.30
2014,12,10,15,58,10.30
2014,12,10,15,59,10.30
2014,12,10,16,00,10.30
2014,12,10,16,01,10.30
2014,12,10,16,02,10.30
2014,12,10,16,03,10.30
2014,12,10,16,04,10.30
2014,12,10,16,05,10.30
2014,12,10,16,06,10.30
2014,12,10,16,07,10.30
2014,12,10,16,08,10.30
2014,12,10,16,09,10.30
2014,12,10,16,10,10.20
2014,12,10,16,11,10.20
2014,12,10,16,12,10.20
2014,12,10,16,13,10.20
2014,12,10,16,14,10.20
2014,12,10,16,15,10.20
2014,12,10,16,16,10.20
2014,12,10,16,17,10.20
2014,12,10,16,18,10.20
2014,12,10,16,19,10.20
2014,12,10,16,20,10.20
2014,12,10,16,21,10.20
2014,12,10,16,22,10.20
2014,12,10,16,23,10.20
2014,12,10,16,24,10.20
2014,12,10,16,25,10.20
2014,12,10,16,26,10.10
2014,12,10,16,27,10.10
2014,12,10,16,28,10.10
2014,12,10,16,29,10.10
2014,12,10,16,30,10.10
2014,12,10,16,31,10.10
2014,12,10,16,32,10.10
2014,12,10,16,33,10.00
2014,12,10,16,34,10.00
2014,12,10,16,35,10.00
2014,12,10,16,36,10.00
2014,12,10,16,37,9.90
2014,12,10,16,38,9.90
2014,12,10,16,39,9.90
2014,12,10,16,40,9.90
2014,12,10,16,41,9.90
2014,12,10,16,42,9.90
2014,12,10,16,43,9.90
2014,12,10,16,44,9.90
2014,12,10,16,45,9.90
2014,12,10,16,46,9.90
2014,12,10,16,47,9.80
2014,12,10,16,48,9.80
2014,12,10,16,49,9.80
2014,12,10,16,50,9.80
2014,12,10,16,51,9.80
2014,12,10,16,52,9.80
2014,12,10,16,53,9.80
2014,12,10,16,54,9.80
2014,12,10,16,55,9.80
2014,12,10,16,56,9.80
2014,12,10,16,57,9.80
2014,12,10,16,58,9.80
2014,12,10,16,59,9.80
2014,12,10,17,00,9.80
2014,12,10,17,01,9.80
2014,12,10,17,02,9.80
2014,12,10,17,03,9.80
2014,12,10,17,04,9.80
2014,12,10,17,05,9.80
2014,12,10,17,06,9.80
2014,12,10,17,07,9.80
2014,12,10,17,08,9.80
2014,12,10,17,09,9.70
2014,12,10,17,10,9.70
2014,12,10,17,11,9.70
2014,12,10,17,12,9.70
2014,12,10,17,13,9.70
2014,12,10,17,14,9.70
2014,12,10,17,15,9.70
2014,12,10,17,16,9.70
2014,12,10,17,17,9.70
2014,12,10,17,18,9.60
2014,12,10,17,19,9.60
2014,12,10,17,20,9.60
2014,12,10,17,21,9.60
2014,12,10,17,22,9.60
2014,12,10,17,23,9.60
2014,12,10,17,24,9.60
2014,12,10,17,25,9.60
2014,12,10,17,26,9.60
2014,12,10,17,27,9.50
2014,12,10,17,28,9.50
2014,12,10,17,29,9.50
2014,12,10,17,30,9.50
2014,12,10,17,31,9.50
2014,12,10,17,32,9.50
2014,12,10,17,33,9.50